SCP
1 0 0 0 0 0 0 0 0 1 1 1 1 1 1 1 0 0 0 0 0 0 0 0 0 0 0 0 0 0 0 0 0 0 0 0 1 1 1 1 1 1 1
1 0 0 0 0 0 0 0 0 0 0 1 1 1 1 0 0 0 0 0 0 0 0 0 0 0 0 0 0 0 0 0 0 0 0 0 1 1 1 1 1 1 1
0 0 0 0 0 0 0 0 0 0 0 0 0 0 0 0 0 0 0 0 0 0 0 0 0 0 0 0 0 0 0 0 0 0 0 0 0 1 1 1 1 1 1
0 0 0 0 0 0 0 0 0 0 0 0 0 0 0 0 0 0 0 0 0 0 0 0 0 0 0 0 0 0 0 0 0 0 0 0 0 0 1 1 1 1 1
0 0 0 0 0 0 0 0 0 0 0 0 0 0 0 0 0 0 0 0 0 0 0 0 0 0 0 0 0 0 0 0 0 0 0 0 0 0 0 1 1 1 1
0 0 0 1 0 0 0 0 0 0 0 0 0 0 0 0 0 0 0 0 0 0 0 0 0 0 0 0 0 0 0 0 0 0 0 0 0 0 0 1 1 1 1
0 0 1 1 1 0 0 0 0 0 0 0 0 0 0 0 0 0 0 0 0 0 0 0 0 0 0 0 0 0 0 0 0 0 0 0 0 0 0 0 1 1 1
0 0 1 1 1 1 0 0 0 0 0 0 0 0 0 0 0 0 0 0 0 0 0 0 0 0 0 0 0 0 0 0 0 0 0 0 0 0 0 0 1 1 1
0 0 1 1 1 1 1 0 0 0 0 0 0 0 0 0 0 0 0 0 0 0 0 0 0 0 0 0 0 0 0 0 0 0 0 0 0 0 1 1 0 0 0
0 0 1 1 1 1 1 0 0 0 0 0 0 0 0 0 0 0 0 0 0 0 0 0 0 0 0 0 0 0 0 0 0 0 0 0 0 0 0 1 0 0 0
0 0 1 1 1 1 1 1 0 0 0 1 0 0 0 0 0 0 0 0 0 0 0 0 0 0 0 0 0 0 0 0 0 0 0 0 0 0 0 0 0 0 0
0 0 1 1 2 1 1 1 0 0 0 1 1 1 0 0 0 0 0 0 0 0 0 0 0 0 0 0 0 0 0 0 0 0 0 0 0 0 0 0 0 0 0
0 0 1 1 2 1 1 1 1 1 0 0 1 1 1 1 1 0 0 0 0 0 0 0 0 0 0 0 0 0 0 0 0 0 0 0 0 0 0 0 0 0 0
0 0 1 1 1 1 1 1 1 1 0 0 0 0 0 1 1 1 0 0 0 0 0 0 0 0 0 0 0 0 0 0 0 0 0 0 0 0 0 0 0 0 0
0 0 0 1 1 1 0 1 1 1 1 0 0 0 0 0 0 0 0 0 0 0 0 0 0 0 0 0 0 0 0 0 0 0 0 0 0 0 0 0 0 0 0
0 0 0 0 0 0 0 0 1 1 1 0 0 0 0 0 0 0 0 0 0 0 0 0 0 0 0 0 0 0 0 0 0 0 0 0 0 0 0 0 0 0 0
0 0 0 0 0 0 0 0 1 1 1 1 0 0 0 0 0 0 0 0 0 0 0 0 0 0 0 1 1 0 0 0 0 0 0 0 0 0 0 0 0 0 0
0 0 0 0 0 0 0 0 0 1 1 0 0 0 0 0 0 0 0 0 0 0 0 0 0 0 0 1 1 0 0 0 0 0 0 0 0 0 0 0 0 0 0
0 0 0 0 0 0 0 0 0 0 0 0 0 0 0 0 0 0 1 1 1 0 0 0 0 0 0 1 1 1 0 0 0 0 0 0 0 0 0 0 0 0 0
0 0 0 0 0 0 0 0 0 0 0 0 0 0 0 0 0 0 0 1 1 1 0 0 0 0 0 1 1 1 0 0 0 0 0 0 0 0 0 0 0 0 0
0 0 0 0 0 0 0 0 0 0 0 0 0 0 0 0 0 0 0 0 0 0 0 0 0 0 0 0 1 1 0 0 0 0 0 0 0 0 0 0 0 0 0
0 0 0 0 0 0 0 0 0 0 0 0 0 0 0 0 0 0 0 0 0 0 0 0 0 0 0 0 0 0 0 0 0 0 0 0 0 0 0 0 0 0 0
0 0 0 0 0 0 0 0 0 0 0 0 0 0 0 0 0 0 0 0 0 0 0 0 0 0 0 0 0 0 0 0 0 0 0 0 0 0 0 0 0 0 0
0 0 0 0 0 0 0 0 0 0 0 0 0 0 0 0 0 0 0 0 0 0 0 0 0 0 0 0 0 0 0 0 0 0 0 0 0 0 0 0 0 0 0
0 0 0 0 0 0 0 0 0 0 0 0 0 0 0 0 0 0 0 0 0 0 0 0 0 0 0 0 0 0 0 0 0 0 0 0 0 0 0 0 0 0 0
0 0 0 0 0 0 0 0 0 0 0 0 0 0 0 0 0 0 0 0 0 0 0 0 0 0 0 0 0 0 0 0 0 0 0 0 0 0 0 0 0 0 0
Wind_Speed
9 8 6 6 5 4 4 5 5 4 4 2 1 2 1 1 1 2 3 2 3 4 3 2 2 2 2 3 3 2 3 2 1 1 2 2 0 1 1 0 1 1 2
9 8 7 6 5 5 4 5 5 5 4 2 1 1 1 1 1 1 2 2 3 4 4 3 2 2 1 2 3 2 2 2 2 1 1 1 2 2 0 1 1 0 1
9 8 7 6 5 5 4 4 4 5 5 3 2 2 1 1 1 0 1 1 1 1 2 4 3 3 2 1 2 2 1 2 2 1 1 0 0 1 1 0 1 1 1
8 8 6 6 6 5 5 5 5 5 5 4 2 1 1 0 0 0 1 0 1 0 1 2 3 3 2 2 2 2 1 1 2 2 1 1 1 1 1 2 1 1 1
7 8 6 5 6 6 5 4 4 4 4 3 3 1 0 0 1 1 1 1 0 0 0 1 2 2 1 1 2 2 2 1 1 1 1 2 1 1 1 1 1 1 0
7 7 6 5 5 5 5 4 4 4 4 3 3 3 2 1 0 0 1 2 1 0 0 0 1 2 2 1 2 2 1 1 1 1 1 1 0 1 0 1 1 0 0
6 6 6 5 5 5 5 4 4 3 3 3 2 2 3 2 1 1 1 2 1 0 0 1 1 1 2 2 1 2 1 1 1 1 1 1 1 0 0 0 0 0 0
6 5 5 5 5 5 5 4 4 3 3 2 2 1 2 1 1 1 1 2 1 0 0 0 0 1 1 1 1 1 2 1 1 1 1 0 1 1 0 1 1 0 1
6 5 5 5 4 5 5 4 4 3 3 3 2 1 1 1 0 1 1 1 1 1 1 1 0 1 1 1 1 1 1 2 2 2 2 1 1 1 1 0 1 1 0
5 5 5 4 4 4 4 4 3 3 3 3 2 2 2 1 1 1 1 1 1 1 1 1 1 1 1 0 0 1 1 1 1 1 2 2 1 1 0 0 0 1 2
4 4 4 4 3 4 4 3 3 3 3 3 3 2 2 2 1 2 2 2 2 1 1 1 1 1 1 1 0 1 1 1 2 1 1 1 1 1 1 0 0 1 1
5 5 4 4 3 3 3 3 3 3 2 2 1 1 1 2 2 2 2 2 2 2 2 2 2 2 1 1 1 1 2 1 2 2 1 1 1 1 1 0 1 1 1
5 5 5 4 2 2 2 2 1 2 2 2 1 1 1 1 1 1 2 3 2 2 2 2 2 2 2 1 1 2 2 2 2 1 1 1 0 1 1 1 0 1 1
5 5 4 3 2 2 1 1 1 1 1 1 1 1 1 1 1 2 2 3 2 2 2 1 2 1 1 1 2 2 2 2 1 1 0 1 0 1 1 1 1 1 1
5 4 3 3 2 1 1 1 1 1 1 1 1 1 1 1 1 2 2 3 2 3 3 2 2 1 1 1 2 2 3 2 2 1 1 1 2 2 1 0 0 0 1
5 4 4 3 2 2 1 1 0 0 1 2 1 1 1 1 1 2 2 3 2 3 3 3 3 2 1 1 1 1 3 3 2 2 1 2 2 3 2 1 1 1 1
5 4 4 4 3 2 1 1 1 0 0 1 1 1 1 1 1 2 3 3 2 3 4 4 3 3 3 3 3 3 3 4 3 2 2 1 1 2 2 3 3 2 2
5 4 4 4 4 4 3 2 2 2 1 1 1 0 1 1 1 2 3 3 3 3 3 4 4 3 4 5 5 5 4 4 4 3 2 2 1 1 1 2 3 3 2
4 4 3 4 4 5 4 4 3 3 3 3 3 1 1 1 2 3 3 3 3 4 3 4 4 4 4 6 7 5 3 4 4 3 2 2 1 1 1 1 2 2 2
4 4 4 5 5 5 5 4 4 3 3 3 3 2 2 2 3 3 3 3 3 4 4 4 5 5 5 6 7 6 3 4 4 3 3 3 3 2 1 1 1 2 3
4 4 3 3 4 4 4 4 4 4 3 3 3 3 3 3 3 3 3 3 3 4 5 5 5 4 5 5 7 6 3 3 3 3 2 2 4 4 4 3 2 3 3
3 3 3 3 3 3 4 4 4 4 4 3 4 4 4 4 3 3 3 3 3 4 5 5 5 4 4 4 6 8 7 5 3 3 2 2 5 5 5 4 5 5 3
3 2 2 2 2 3 3 4 4 4 4 4 4 4 4 4 3 3 3 3 3 3 4 3 4 4 3 3 6 7 8 7 4 3 4 4 5 5 5 7 7 5 3
3 3 3 3 3 3 3 3 4 4 4 5 5 4 4 4 4 3 3 3 3 3 4 4 4 4 3 3 2 3 4 5 4 4 4 4 5 5 6 5 5 4 4
2 2 3 3 4 4 3 3 3 4 5 5 5 5 4 4 3 3 3 4 4 4 4 4 4 4 5 5 5 4 4 4 4 3 3 3 3 4 4 4 4 4 4
2 3 3 4 5 5 5 4 4 4 5 5 4 4 4 4 3 4 5 6 7 10 10 10 8 7 8 8 8 9 8 8 7 5 4 5 5 6 6 5 5 5 5
Wind_Direction
159 147 148 145 145 139 130 118 118 114 106 87 62 64 55 1 48 60 54 21 16 18 355 352 358 8 6 336 329 339 337 324 321 337 325 322 82 145 147 110 59 139 137
147 146 148 151 155 142 132 124 122 119 109 102 98 107 81 352 70 54 49 23 31 18 351 360 357 359 342 342 340 347 345 323 326 324 336 348 356 347 126 135 148 85 121
145 146 158 153 147 140 130 127 131 122 117 125 101 74 66 346 31 53 79 36 43 21 351 351 349 334 346 350 326 330 347 319 320 355 90 92 303 328 337 88 130 136 128
140 144 153 152 151 141 134 142 138 131 132 136 122 125 132 246 38 66 127 229 187 167 12 350 342 336 352 347 325 10 337 321 319 322 318 205 170 150 342 342 9 110 128
136 141 146 151 152 144 143 148 139 133 134 137 138 178 124 330 36 35 13 291 189 108 86 350 326 321 336 348 333 341 334 334 327 323 334 334 328 235 157 257 312 353 33
136 137 137 139 137 132 135 142 138 130 132 155 169 175 152 138 6 304 300 302 270 238 9 346 331 331 343 346 339 334 318 323 328 328 324 317 328 320 333 215 230 255 316
123 123 127 130 133 133 137 142 140 145 156 179 194 179 162 191 217 241 238 270 279 246 344 350 356 336 345 340 332 320 315 297 282 268 288 322 295 268 267 184 257 266 248
109 112 118 127 136 141 144 151 155 163 167 186 213 226 155 174 196 226 255 262 262 219 193 329 22 334 342 339 344 333 322 322 316 305 297 289 294 314 194 170 159 348 321
111 115 114 123 136 148 156 164 162 168 176 189 202 209 175 150 213 270 279 288 302 314 8 328 18 342 345 340 357 339 328 341 336 330 321 293 266 271 282 156 148 153 191
114 116 117 123 132 142 152 155 159 170 184 192 201 184 193 176 204 265 278 291 301 315 313 316 313 301 294 313 7 318 306 329 299 275 311 319 309 314 284 224 223 174 172
106 103 108 116 123 128 140 148 165 178 189 202 204 190 181 179 215 243 254 265 264 272 267 263 267 271 283 278 240 258 284 278 278 273 245 260 269 269 265 235 234 212 154
97 102 98 93 96 110 129 146 169 183 191 204 210 194 171 181 216 253 261 264 257 249 259 267 271 271 270 280 292 260 264 256 278 292 309 293 283 246 253 235 233 223 188
88 94 96 95 97 103 116 137 157 182 179 175 194 202 210 221 226 260 277 278 266 253 248 243 260 280 282 274 276 268 265 258 260 272 288 292 318 269 232 206 217 253 218
81 82 88 97 97 90 105 114 133 147 146 149 173 207 226 237 258 264 265 278 287 279 265 262 258 271 292 296 294 292 285 280 280 270 288 320 19 323 296 218 222 225 226
75 74 78 80 88 72 53 88 137 155 165 164 179 231 233 208 252 285 284 282 295 297 288 275 266 256 264 306 336 322 313 306 303 287 225 172 144 117 95 71 274 248 220
69 59 58 65 71 77 58 37 19 186 172 166 192 218 220 222 242 278 290 288 284 285 286 273 264 258 257 259 266 297 312 309 301 290 257 200 174 170 179 164 132 151 198
61 47 38 34 33 38 49 53 320 305 142 141 168 195 206 226 227 257 271 271 271 271 278 285 276 250 228 220 228 245 265 279 282 280 276 271 211 173 193 216 225 225 235
62 45 30 28 20 21 19 14 27 30 24 19 22 264 244 250 243 251 267 264 264 262 257 272 279 272 245 221 221 237 249 264 267 267 259 245 239 224 210 216 211 205 219
61 47 28 26 21 17 6 1 16 28 26 10 354 348 315 275 258 254 261 263 268 269 258 255 256 261 258 227 220 217 240 254 258 254 254 248 231 249 235 232 230 197 209
55 43 28 28 22 10 5 4 5 12 7 353 336 331 307 274 254 252 259 261 262 265 268 266 254 249 253 236 223 214 230 248 253 245 223 209 211 226 215 218 249 227 221
49 38 31 29 17 4 359 354 359 358 349 332 320 316 304 283 265 251 252 261 265 272 270 271 267 257 253 234 220 211 225 246 262 256 236 213 204 213 229 226 225 235 237
48 31 22 14 10 6 357 353 351 345 341 328 313 302 292 291 292 271 261 260 261 269 270 271 276 271 261 237 227 219 224 242 252 261 255 230 214 216 226 231 235 239 240
47 27 6 351 358 5 354 344 339 339 334 322 312 306 302 298 298 289 276 266 261 262 266 267 269 271 267 242 227 222 230 239 245 255 250 244 238 235 232 229 232 229 219
34 16 359 348 343 346 343 337 335 331 323 313 308 307 308 304 304 298 284 276 264 263 268 272 272 271 262 246 232 234 240 241 248 258 264 253 238 237 237 235 230 220 211
19 3 344 333 331 333 330 325 324 324 316 311 311 311 307 300 295 290 284 282 272 262 262 265 269 274 271 260 240 235 238 234 236 239 247 243 237 231 229 220 214 211 209
358 348 339 334 331 333 333 331 328 320 312 311 312 310 309 302 293 290 292 278 273 275 269 263 264 271 268 276 271 256 249 241 234 229 233 235 230 226 224 221 217 212 211